Вернуться в каталог

CZ-8A R/B

АктивенLEO
NORAD 67245·ROCKET BODY·🇨🇳 China

Запущен Dec 25, 2025 с Wenchang Space Launch Site

Loading…

Ближайшие Пролёты (ближайшие 24 часа)

TLE

СвежийSource: Space-Track

Эпоха: Sep 14, 2026, 16:30 UTC

1 67245U 25311K   26257.68760110  .00000051  00000-0  10592-3 0  9993
2 67245  50.0049  29.9514 0089044 261.8217  97.2584 14.12653055 37148

Отслеживайте CZ-8A R/B в реальном времени с AllMySat

Download on the App Store